Вернуться в каталог

RADUGA 29

АктивенВоенныеGEO
NORAD 22557·PAYLOAD·🇷🇺 Russia

Запущен Mar 25, 1993 с Baikonur Cosmodrome

Loading…

TLE

СвежийSource: Space-Track

Эпоха: Sep 14, 2026, 14:25 UTC

1 22557U 93013A   26257.60127446 -.00000346  00000-0  00000-0 0  9993
2 22557  13.7893 344.4437 0003918 192.2992 165.1583  1.00300129122570

Отслеживайте RADUGA 29 в реальном времени с AllMySat

Download on the App Store